Regional Weather Roundup
Issued by NWS Sioux Falls, SD

Home | Current Version | Previous Version | Graphics & Text | Print | Product List | Glossary Off
Versions: 1 2 3 4 5 6 7 8 9 10 11 12 13 14 15 16 17 18 19 20 21 22 23 24 25 26 27 28 29 30 31 32 33 34 35 36 37 38 39 40 41 42 43 44 45 46 47 48 49 50

000
ASUS43 KFSD 021002
RWRFSD

WEATHER ROUNDUP FOR SE SOUTH DAKOTA/SW MINNESOTA/NW IOWA
NATIONAL WEATHER SERVICE SIOUX FALLS SD
500 AM CDT MON MAY 02 2016

NOTE: "FAIR" INDICATES FEW OR NO CLOUDS BELOW 12,000 FEET WITH NO
SIGNIFICANT WEATHER AND OR OBSTRUCTIONS TO VISIBILITY.


SDZ038>040-050-052>070-021100-
SOUTHEAST SOUTH DAKOTA

CITY           SKY/WX    TMP DP  RH WIND       PRES   REMARKS
BROOKINGS      CLEAR     34  32  92 CALM      30.13S
CHAMBERLAIN    NOT AVBL
HURON          CLEAR     38  33  82 CALM      30.13F
MADISON        FAIR      37  36  93 W6        30.13F
MITCHELL       CLEAR     40  35  83 W5        30.14F
SIOUX FALLS    CLEAR     35  33  92 CALM      30.14S
WINNER         FAIR      42  31  64 SW6       30.16F
YANKTON        CLEAR     39  34  81 SW3       30.15S
$$

MNZ071-072-080-081-089-090-097-098-021100-
SOUTHWEST MINNESOTA

CITY           SKY/WX    TMP DP  RH WIND       PRES   REMARKS
FAIRMONT       CLEAR     39  30  70 NW3       30.10F
JACKSON        CLEAR     41  34  75 NW5       30.12S
LUVERNE        CLEAR     34  32  93 CALM      30.14S
MARSHALL       CLEAR     38  32  79 SW5       30.12F
MONTEVIDEO     CLEAR     39  28  65 CALM      30.13S
REDWOOD FALLS  CLEAR     43  31  62 W5        30.12F
TRACY          CLEAR     44  33  67 W6        30.12F
WINDOM         CLEAR     37  36  93 CALM      30.12S
WORTHINGTON    CLEAR     39  34  82 W5        30.13S
$$

IAZ001>003-012>014-020>022-031-032-NEZ013-014-SDZ071-021100-
NORTHWEST IOWA

CITY           SKY/WX    TMP DP  RH WIND       PRES   REMARKS
CHEROKEE       CLEAR     34  34 100 CALM      30.13F FOG
DENISON        CLOUDY    45 N/A N/A N3        30.11S
ESTHERVILLE    CLEAR     39  36  89 N3        30.11S
SIOUX CITY     CLEAR     37  34  89 NW6       30.14F
SPENCER        CLEAR     36  33  89 W3        30.12F
STORM LAKE     MOCLDY    43  37  81 NW9       30.12S
$$

ABBREVIATIONS USED IN REMARKS
   TC - TEMPERATURE IN CELSIUS
  WCI - WIND CHILL INDEX
   HX - HEAT INDEX
  VSB - VISIBILITY




USA.gov is the U.S. government's official web portal to all federal, state and local government web resources and services.